Location: Orange Harbor Mobile Home Park
(26.6923°N, 81.7937°W)
Time: 07:59:55
(UTC+00:00)

Cosmos 1844 Rocket - Pass Details

Date: 19 September 2020
Orbit: 823 x 846 km, 71.0° (Epoch: 29 October)

Event Time Altitude Azimuth Distance (km) Brightness Sun altitude
Rises 00:36:28 0° 187° (S) 3,341 5.8 -16.2°
Reaches altitude 10° 00:38:55 10° 183° (S) 2,410 5.0 -16.7°
Maximum altitude 00:44:18 56° 106° (ESE) 969 2.6 -17.9°
Drops below altitude 10° 00:49:43 10° 29° (NNE) 2,425 4.9 -19.1°
Sets 00:52:12 0° 25° (NNE) 3,363 5.7 -19.6°
